Key statistics
Satellite OBJECT E at a glance.
Uptime
439
Days in orbit
Revolutions
≈ 16.4
Per day
Orbit
SSO
Sun Synchronous Orbit
Inclination
97.4
Latest
Satellite identification and parameters
Extended collection of information and parameters for OBJECT E.
Object identification
Identified? True
Debris? False
Object name: OBJECT E
International designator: 2024-039E
Object number (NORAD): 59055
Object ID (CCSDS): 59055
Country: TO BE DETERMINED/UNKNOWN (TBD)
Current information (Y/N): Y
RCS size: SMALL
Orbital parameters
Decay date: May 13, 2025
Period: 87.634 minutes
Inclination: 97.3945 deg
SMA: 6535.471 km
Apoapsis: 163.692 km
Periapsis: 150.979 km
RAAN: 105.1751 deg
Eccentricy: 0.0009726
Argument of periapsis: 224.1785 deg
Mean anomaly: 135.874 deg
Mean motion: 16.43188711 rev/day
Mean motion (dot): 0.1150622 rev/day2
B* drag term: 0.00044338 1/REarth
Two-line elements (TLE)
Creation date: May 9, 2025, 2:46 a.m.
Reference frame: TEME
Reference center: EARTH
Epoch: May 8, 2025, 10:09 a.m. UTC
TLE line 0: 0 OBJECT E
TLE line 1: 1 59055U 24039E 25128.42299177 .11506220 26303-5 44338-3 0 9992
TLE line 2: 2 59055 97.3945 105.1751 0009726 224.1785 135.8740 16.43188711 66961
Live tracking on map
Satellite OBJECT E has decayed and is no longer in orbit. No tracking available.
In-orbit conjunctions
Satellite OBJECT E has decayed and is no longer in orbit. No conjunctions available.
Associated space launch
Meteor-M satellites are a new generation of Russian meteorological satellites. Hitchhiking Payloads: SITRO-AIS 13-28, Zorkiy-2M-2, Pars 1 (Iran).
OBJECT E was lifted into orbit during the mission ‘Soyuz 2.1b/Fregat-M | Meteor-M No.2-4 & others’, on board a Soyuz 2.1b/Fregat-M space rocket.
The launch took place on Feb. 29, 2024, 5:43 a.m. from Cosmodrome Site 1S.
For more information about the launch, click the button.
Soyuz 2.1b/Fregat-M | Meteor-M No.2-4 & others
Agency: Russian Federal Space Agency (ROSCOSMOS)
Status: Launch Successful
Launch date: Feb. 29, 2024, 5:43 a.m. UTC
Rocket: Soyuz 2.1b/Fregat-M
Launch pad: Cosmodrome Site 1S
Location: Vostochny Cosmodrome, Siberia, Russian Federation
...
Latest news about this satellite
There are no fresh news available about this satellite. Check back as we update our databases every day.
Newsletter sign-up
Weekly statistics, charts and insights to help you stay on top of the space industry.
